Location: Auckland
(36.8670°S, 174.7670°E)
Time: 18:37:06
(UTC+12:00)

Vanguard 1 Rocket - All Passes

Search period start: 18 July 2019 00:00
Search period end: 28 July 2019 00:00
Orbit: 651 x 4225 km, 34.3° (Epoch: 16 July)

Date Brightness Start Highest point End Pass type
(mag) Time Alt. Az. Time Alt. Az. Time Alt. Az.
18 Jul - 01:09:48 10° WNW 01:14:18 64° N 01:19:04 10° E night (unlit)
18 Jul - 03:34:24 10° W 03:38:56 47° NNW 03:45:43 10° ENE visible
18 Jul - 05:59:39 10° WNW 06:04:31 20° NNW 06:11:38 10° NNE visible
18 Jul - 21:33:15 10° NNW 21:38:46 22° NNE 21:42:46 10° ENE visible
18 Jul - 23:58:31 10° WNW 00:03:35 54° N 00:07:55 10° E night (unlit)
19 Jul - 02:23:44 10° W 02:28:05 58° N 02:33:37 10° ENE visible
19 Jul - 04:48:25 10° WNW 04:53:02 27° NNW 04:59:58 10° NE visible
19 Jul - 20:22:26 10° N 20:27:21 16° NNE 20:31:07 10° ENE visible
19 Jul - 22:46:50 10° NW 22:52:48 41° NNE 22:57:06 10° E night (unlit)
20 Jul - 01:12:47 10° W 01:17:21 65° N 01:22:03 10° E night (unlit)
20 Jul - 03:37:36 10° W 03:41:56 36° NNW 03:48:05 10° NE visible
20 Jul - 06:04:20 10° NW 06:07:36 13° NNW 06:11:40 10° N visible
20 Jul - 19:13:56 10° NNE 19:15:32 10° NNE 19:17:00 10° NE visible
20 Jul - 21:34:55 10° NW 21:41:48 30° NNE 21:46:21 10° E visible
21 Jul - 00:01:20 10° WNW 00:06:37 62° N 00:10:59 10° E night (unlit)
21 Jul - 02:26:50 10° W 02:31:06 49° NNW 02:36:22 10° ENE night (unlit)
21 Jul - 04:52:11 10° WNW 04:56:04 19° NNW 05:01:21 10° NNE visible
21 Jul - 20:23:04 10° NNW 20:30:25 23° NNE 20:35:20 10° ENE visible
21 Jul - 22:49:21 10° WNW 22:55:49 51° NNE 23:00:17 10° E visible
22 Jul - 01:15:47 10° W 01:20:23 61° N 01:24:59 10° ENE night (unlit)
22 Jul - 03:40:58 10° WNW 03:44:56 27° NNW 03:50:14 10° NE visible
22 Jul - 19:11:46 10° N 19:18:38 17° NNE 19:23:35 10° ENE visible
22 Jul - 21:36:57 10° NW 21:44:48 40° NNE 21:49:42 10° E visible
23 Jul - 00:04:13 10° W 00:09:39 66° N 00:14:02 10° E night (unlit)
23 Jul - 02:29:58 10° W 02:34:05 38° NNW 02:38:59 10° NE night (unlit)
23 Jul - 04:56:54 10° NW 04:59:07 12° NNW 05:01:42 10° N visible
23 Jul - 18:02:34 10° NNE 18:06:21 12° NNE 18:09:36 10° NE visible
23 Jul - 20:24:22 10° NW 20:33:28 32° NNE 20:38:59 10° E visible
23 Jul - 22:52:01 10° WNW 22:58:50 61° N 23:03:23 10° E visible
24 Jul - 01:18:48 10° W 01:23:23 53° NNW 01:27:53 10° ENE night (unlit)
24 Jul - 03:44:38 10° WNW 03:47:55 18° NNW 03:51:58 10° NNE visible
24 Jul - 19:12:00 10° NNW 19:21:41 24° NNE 19:27:51 10° ENE visible
24 Jul - 21:39:14 10° WNW 21:47:49 51° NNE 21:52:54 10° E visible
25 Jul - 00:07:07 10° W 00:12:41 66° N 00:17:03 10° ENE night (unlit)
25 Jul - 02:33:13 10° W 02:37:03 28° NNW 02:41:24 10° NE night (unlit)
25 Jul - 18:00:26 10° N 18:09:26 18° NNE 18:15:46 10° ENE visible
25 Jul - 20:26:05 10° NW 20:36:29 41° NNE 20:42:22 10° E visible
25 Jul - 22:54:45 10° WNW 23:01:51 68° N 23:06:28 10° E visible
26 Jul - 01:21:50 10° W 01:26:22 43° NNW 01:30:42 10° NE night (unlit)
26 Jul - 03:49:09 10° NW 03:50:52 12° NNW 03:52:45 10° N visible
26 Jul - 16:51:23 10° NNE 16:56:41 12° NNE 17:01:06 10° NE daylight
26 Jul - 19:12:55 10° NW 19:24:42 33° NNE 19:31:34 10° E visible
26 Jul - 21:41:40 10° WNW 21:50:48 61° N 21:56:03 10° E visible
27 Jul - 00:10:02 10° W 00:15:41 61° N 00:20:03 10° ENE night (unlit)
27 Jul - 02:36:41 10° WNW 02:39:57 20° NNW 02:43:31 10° NNE night (unlit)
27 Jul - 18:00:13 10° NNW 18:12:27 25° NNE 18:20:08 10° ENE visible
27 Jul - 20:28:04 10° NW 20:39:27 51° NNE 20:45:37 10° E visible
27 Jul - 22:57:32 10° W 23:04:52 70° N 23:09:33 10° E visible
